Location: Kikino
(54.4440°N, 112.0940°W)
Time: 00:30:51
(UTC+00:00)

Vanguard 3 - Pass Details

Date: 21 May 2024
Orbit: 509 x 3231 km, 33.3° (Epoch: 21 June)

Event Time Altitude Azimuth Distance (km) Brightness Sun altitude
Rises 08:20:35 0° 265° (W) 6,181 11.5 -14.3°
Reaches altitude 10° 08:26:08 10° 251° (WSW) 5,563 11.1 -14.1°
Maximum altitude 08:36:39 20° 213° (SSW) 5,252 10.7 -13.7°
Drops below altitude 10° 08:48:16 10° 177° (S) 6,139 11.0 -13.1°
Sets 08:55:02 0° 162° (SSE) 7,011 11.5 -12.8°
